Weather History for LFST - February, 2013

Change the Weather History Date:

Friday, February 15, 2013

  Actual Average Record
Temperature  
Mean Temperature 33 °F -  
Max Temperature 37 °F 48 °F 60 °F (1998)
Min Temperature 29 °F 32 °F 17 °F (2003)
Degree Days  
Heating Degree Days 32    
Moisture  
Dew Point 32 °F    
Average Humidity 96    
Maximum Humidity 100    
Minimum Humidity 87    
Precipitation  
Precipitation 0.02 in 0.05 in - ()
Sea Level Pressure  
Sea Level Pressure 30.09 in    
Wind  
Wind Speed 2 mph ()    
Max Wind Speed 5 mph    
Max Gust Speed -    
Visibility 1.4 miles    
Events Fog , Rain , Snow    
Averages and records for this station are not official NWS values.
T = Trace of Precipitation, MM = Missing Value Source: Averaged Metar Reports

Daily Weather History Graph

Daily Weather History Graph

Search for Another Location

Airport or City:

Trip Planner

Search our weather history database for the weather conditions in past years. The results will help you decide how hot, cold, wet, or windy it might be!

Date:

Astronomy

Feb. 15, 2013 Rise Set
Actual Time 7:36 AM CET 5:50 PM CET
Civil Twilight 7:04 AM CET 6:23 PM CET
Nautical Twilight 6:27 AM CET 7:00 PM CET
Astronomical Twilight 5:51 AM CET 7:36 PM CET
Moon 9:32 AM CET (2/15) No Moon Set
Length of Visible Light 11h 18m
Length of Day
10h 14m
Waxing Crescent, 28% of the Moon is Illuminated
Feb 15
Waxing Crescent
Feb 17
First Quarter
Feb 25
Full
Mar 4
Last Quarter
Mar 11
New

Hourly Weather History & Observations

Time (CET) Temp. Windchill Dew Point Humidity Pressure Visibility Wind Dir Wind Speed Gust Speed Precip Events Conditions
12:00 AM 30.2 °F 25.4 °F 30.2 °F 100% 29.98 in 1.9 mi South 4.6 mph - N/A Snow Light Snow
12:30 AM 32.0 °F 28.7 °F 30.2 °F 93% 29.98 in - South 3.5 mph - N/A   Overcast
1:00 AM 31 °F - 30 °F 95% 30.01 in 2 mi SSE 3.5 mph - -   Light Freezing Rain
1:00 AM 32.0 °F 28.7 °F 30.2 °F 93% 29.98 in 1.5 mi Variable 3.5 mph - N/A Rain Rain
1:30 AM 32.0 °F 28.7 °F 30.2 °F 93% 29.98 in 1.9 mi SE 3.5 mph - N/A Rain Rain
2:00 AM 32.0 °F 28.7 °F 30.2 °F 93% 29.98 in 1.1 mi Variable 3.5 mph - N/A Snow Light Snow
2:30 AM 32.0 °F 28.7 °F 30.2 °F 93% 29.98 in 0.7 mi SE 3.5 mph - N/A Fog , Snow Light Snow
3:00 AM 32.0 °F - 30.2 °F 93% 29.98 in 0.7 mi ESE 2.3 mph - N/A Snow Light Snow
3:30 AM 32.0 °F - 32.0 °F 100% 29.98 in 0.6 mi Variable 1.2 mph - N/A Fog , Snow Light Snow
4:00 AM 32.0 °F - 32.0 °F 100% 29.98 in 0.6 mi East 2.3 mph - N/A Fog , Snow Light Snow
4:30 AM 32.0 °F - 32.0 °F 100% 29.98 in 0.6 mi Calm Calm - N/A Fog , Rain , Snow Light Snow
5:00 AM 32.0 °F - 32.0 °F 100% 29.98 in 0.4 mi Calm Calm - N/A Fog , Snow Light Snow
5:30 AM 32.0 °F - 30.2 °F 93% 29.98 in - Calm Calm - N/A Fog , Snow Light Snow
6:00 AM 30.2 °F 26.7 °F 30.2 °F 100% 30.01 in 0.4 mi North 3.5 mph - N/A Fog , Snow Light Snow
6:30 AM 30.2 °F 26.7 °F 30.2 °F 100% 30.01 in 0.6 mi North 3.5 mph - N/A Fog , Snow Light Snow
7:00 AM 31 °F - 31 °F 99% 30.05 in 0 mi North 2.3 mph - - Snow Light Snow
7:00 AM 30.2 °F - 30.2 °F 100% 30.01 in 0.4 mi Variable 2.3 mph - N/A Fog , Snow Light Snow
7:30 AM 30.2 °F - 30.2 °F 100% 30.01 in 0.4 mi Calm Calm - N/A Fog , Snow Light Snow
8:00 AM 30.2 °F - 30.2 °F 100% 30.04 in 0.6 mi NW 1.2 mph - N/A Fog Light Freezing Fog
8:30 AM 30.2 °F - 30.2 °F 100% 30.04 in 0.7 mi Calm Calm - N/A Fog Light Freezing Fog
9:00 AM 32.0 °F - 32.0 °F 100% 30.06 in 0.7 mi Calm Calm - N/A Fog Light Freezing Fog
9:30 AM 32.0 °F - 32.0 °F 100% 30.06 in 0.8 mi Calm Calm - N/A Rain Light Rain
10:00 AM 32.0 °F - 32.0 °F 100% 30.06 in 0.7 mi Calm Calm - N/A Fog , Rain Light Rain
10:30 AM 33.8 °F - 32.0 °F 93% 30.09 in 0.7 mi SSE 1.2 mph - N/A Rain Light Rain
11:00 AM 33.8 °F - 33.8 °F 100% 30.09 in 0.7 mi Calm Calm - N/A Fog , Rain Light Rain
11:30 AM 35.6 °F - 33.8 °F 93% 30.09 in 0.8 mi Variable 1.2 mph - N/A   Overcast
12:00 PM 37.4 °F - 33.8 °F 87% 30.12 in 1.0 mi Variable 2.3 mph - N/A   Mostly Cloudy
12:30 PM 35.6 °F - 32.0 °F 87% 30.12 in 1.4 mi Variable 2.3 mph - N/A   Overcast
1:00 PM 36 °F - 33 °F 87% 30.16 in 1 mi SE 3.5 mph - -   Mist
1:00 PM 35.6 °F 32.8 °F 33.8 °F 93% 30.12 in 1.7 mi SE 3.5 mph - N/A   Overcast
1:30 PM 37.4 °F 33.8 °F 33.8 °F 87% 30.12 in - SE 4.6 mph - N/A   Mostly Cloudy
2:00 PM 35.6 °F - 33.8 °F 93% 30.12 in - Variable 2.3 mph - N/A   Overcast
2:30 PM 35.6 °F - 33.8 °F 93% 30.12 in 2.8 mi ESE 2.3 mph - N/A   Overcast
3:00 PM 35.6 °F 32.8 °F 33.8 °F 93% 30.15 in - SE 3.5 mph - N/A   Overcast
3:30 PM 35.6 °F 32.8 °F 33.8 °F 93% 30.15 in - Variable 3.5 mph - N/A   Overcast
4:00 PM 35.6 °F - 33.8 °F 93% 30.15 in 3.1 mi Variable 2.3 mph - N/A   Overcast
4:30 PM 37.4 °F - 35.6 °F 93% 30.15 in 3.1 mi Variable 1.2 mph - N/A   Overcast
5:00 PM 35.6 °F - 33.8 °F 93% 30.15 in 3.7 mi Variable 1.2 mph - N/A   Overcast
5:30 PM 35.6 °F - 33.8 °F 93% 30.15 in 3.1 mi ESE 2.3 mph - N/A   Overcast
6:00 PM 35.6 °F - 33.8 °F 93% 30.18 in 3.7 mi Variable 2.3 mph - N/A   Overcast
6:30 PM 35.6 °F - 33.8 °F 93% 30.18 in 3.7 mi Calm Calm - N/A   Overcast
7:00 PM 35 °F - 34 °F 96% 30.23 in 3 mi NNW 1.2 mph - - Rain Light Drizzle
7:00 PM 35.6 °F - 33.8 °F 93% 30.18 in - Variable 1.2 mph - N/A   Light Drizzle
7:30 PM 35.6 °F - 33.8 °F 93% 30.18 in - Calm Calm - N/A Rain Light Rain
8:00 PM 33.8 °F - 33.8 °F 100% 30.21 in - SW 2.3 mph - N/A   Overcast
8:30 PM 35.6 °F - 35.6 °F 100% 30.21 in - Calm Calm - N/A   Overcast
9:00 PM 35.6 °F - 33.8 °F 93% 30.21 in 1.7 mi West 2.3 mph - N/A Rain Light Rain
9:30 PM 33.8 °F - 33.8 °F 100% 30.21 in 1.1 mi Calm Calm - N/A   Light Drizzle
10:00 PM 33.8 °F - 33.8 °F 100% 30.21 in 1.4 mi WSW 2.3 mph - N/A Rain Light Rain
10:30 PM 33.8 °F - 33.8 °F 100% 30.21 in 1.2 mi Variable 1.2 mph - N/A   Mostly Cloudy
11:00 PM 33.8 °F - 33.8 °F 100% 30.21 in 0.9 mi Calm Calm - N/A   Overcast
11:30 PM 33.8 °F - 33.8 °F 100% 30.21 in 0.8 mi Variable 1.2 mph - N/A   Overcast